Pescara, Italy

7:43 PM CEST on September 29, 2016 (GMT +0200)
Pescara

Weather History for LIBP - February, 2014

Change the Weather History Date:

Wednesday, February 19, 2014

  Actual Average Record
Temperature  
Mean Temperature 58 °F -  
Max Temperature 69 °F 53 °F 69 °F (2014)
Min Temperature 48 °F 36 °F 26 °F (2008)
Degree Days  
Heating Degree Days 6    
Growing Degree Days 8 (Base 50)    
Moisture  
Dew Point 46 °F    
Average Humidity 67    
Maximum Humidity 94    
Minimum Humidity 25    
Precipitation  
Precipitation 0.00 in - - ()
Sea Level Pressure  
Sea Level Pressure 29.92 in    
Wind  
Wind Speed 5 mph ()    
Max Wind Speed 21 mph    
Max Gust Speed -    
Visibility 3.1 miles    
Events      
Averages and records for this station are not official NWS values.
T = Trace of Precipitation, MM = Missing Value Source: Averaged Metar Reports

Daily Weather History Graph

Daily Weather History Graph

Search for Another Location

Airport or City:

Trip Planner

Search our weather history database for the weather conditions in past years. The results will help you decide how hot, cold, wet, or windy it might be!

Date:

Astronomy

Feb. 19, 2014 Rise Set
Actual Time 6:54 AM CET 5:40 PM CET
Civil Twilight 6:25 AM CET 6:08 PM CET
Nautical Twilight 5:53 AM CET 6:41 PM CET
Astronomical Twilight 5:20 AM CET 7:14 PM CET
Moon 10:22 PM CET (2/19) 8:44 AM CET (2/19)
Length of Visible Light 11h 43m
Length of Day
10h 45m
Waning Gibbous, 82% of the Moon is Illuminated
Feb 19
Waning Gibbous
Feb 22
Last Quarter
Mar 1
New
Mar 8
First Quarter
Mar 16
Full

Hourly Weather History & Observations

Time (CET) Temp. Dew Point Humidity Pressure Visibility Wind Dir Wind Speed Gust Speed Precip Events Conditions
12:50 AM 51.8 °F 46.4 °F 82% 30.04 in 3.1 mi Variable 1.2 mph - N/A   Scattered Clouds
1:00 AM 51 °F 47 °F 82% 30.06 in 3 mi SSW 1.2 mph - -   Mist
1:50 AM 51.8 °F 48.2 °F 88% 30.04 in 3.1 mi Variable 1.2 mph - N/A   Scattered Clouds
2:50 AM 51.8 °F 48.2 °F 88% 30.04 in 1.6 mi Variable 3.5 mph - N/A   Scattered Clouds
3:50 AM 51.8 °F 48.2 °F 88% 30.01 in 1.6 mi Variable 3.5 mph - N/A   Mostly Cloudy
4:00 AM 51 °F 48 °F 85% 30.01 in 1 mi SW 3.5 mph - -   Mist
4:50 AM 51.8 °F 48.2 °F 88% 29.98 in 1.6 mi Variable 3.5 mph - N/A   Mostly Cloudy
5:50 AM 51.8 °F 48.2 °F 88% 29.98 in 1.6 mi SSW 5.8 mph - N/A   Mostly Cloudy
6:50 AM 50.0 °F 48.2 °F 94% 29.98 in 1.6 mi SSW 5.8 mph - N/A   Mostly Cloudy
7:00 AM 51 °F 47 °F 83% 29.98 in 2 mi SSW 5.8 mph - -   Mist
7:50 AM 50.0 °F 46.4 °F 87% 29.98 in 1.6 mi Variable 3.5 mph - N/A   Scattered Clouds
8:50 AM 51.8 °F 48.2 °F 88% 29.95 in 1.9 mi Variable 1.2 mph - N/A   Scattered Clouds
9:50 AM 53.6 °F 50.0 °F 88% 29.92 in 2.2 mi Variable 2.3 mph - N/A   Mostly Cloudy
10:00 AM 53 °F 49 °F 84% 29.94 in 2 mi SW 2.3 mph - -   Mist
10:50 AM 55.4 °F 48.2 °F 77% 29.92 in 2.5 mi West 5.8 mph - N/A   Mostly Cloudy
11:50 AM 60.8 °F 51.8 °F 72% 29.92 in 3.1 mi Variable 1.2 mph - N/A   Scattered Clouds
12:50 PM 59.0 °F 50.0 °F 72% 29.89 in 3.7 mi NE 4.6 mph - N/A   Scattered Clouds
1:00 PM 60 °F 50 °F 60% 29.89 in 4 mi NE 4.6 mph - -   Mist
1:50 PM 57.2 °F 50.0 °F 77% 29.86 in 5.0 mi NNE 12.7 mph - N/A   Partly Cloudy
2:50 PM 60.8 °F 50.0 °F 68% 29.83 in 4.3 mi NE 11.5 mph - N/A   Partly Cloudy
3:50 PM 59.0 °F 50.0 °F 72% 29.86 in 3.7 mi NNE 6.9 mph - N/A   Unknown
4:00 PM 58 °F 49 °F 65% 29.86 in 4 mi NNE 6.9 mph - -   Mist
4:50 PM 68.0 °F 42.8 °F 40% 29.83 in 3.7 mi SSW 19.6 mph - N/A   Scattered Clouds
5:50 PM 68.0 °F 41.0 °F 37% 29.83 in 3.1 mi SW 15.0 mph - N/A   Partly Cloudy
6:50 PM 62.6 °F 42.8 °F 48% 29.86 in 3.7 mi East 4.6 mph - N/A   Scattered Clouds
7:00 PM 62 °F 42 °F 36% 29.87 in 4 mi East 4.6 mph - -   Mist
7:50 PM 66.2 °F 41.0 °F 40% 29.86 in 3.7 mi Variable 3.5 mph - N/A   Partly Cloudy
8:25 PM 64.4 °F 39.2 °F 40% 29.86 in 3.7 mi SW 16.1 mph - N/A   Scattered Clouds
8:50 PM 66.2 °F 39.2 °F 37% 29.86 in 3.7 mi SW 18.4 mph - N/A   Partly Cloudy
9:50 PM 66.2 °F 39.2 °F 37% 29.86 in 5.0 mi SW 19.6 mph - N/A   Unknown
10:00 PM 66 °F 39 °F 25% 29.88 in 5 mi SW 19.6 mph - -   Mist
10:50 PM 66.2 °F 39.2 °F 37% 29.89 in 5.0 mi SW 20.7 mph - N/A   Unknown
11:50 PM 60.8 °F 41.0 °F 48% 29.89 in 5.0 mi NNW 5.8 mph - N/A   Unknown